STARLINK-3147, 49410

Orbit data source: Space-Track

STARLINK-3147, 49410 is a payload satellite owned by SpaceX/Seattle (US) in LEO that was launched on Sat, 13 Nov 2021 UTC via an FALCON 9 launch vehicle from the Air Force Eastern Test Range (AFETR). Payload-class satellites include a variety of spacecraft equipped with specific instruments for various scientific and technological missions. These include communications satellites like Starlink; space stations such as the ISS; scientific satellites like the Hubble; Earth observation satellites from companies like Planet Labs, Umbra, and HawkEye 360; GPS; miniature CubeSats for education and research; and military/defense satellites.

Loading next visibility...
Identifier
49410, 2021-104C
Orbit
LEO
Country
Flag of USUS
Related business
Manufacturer
SpaceX/Seattle
Mission
Operational Commercial Communications
Bus & Motor
STARLINK, Unknown motor
Mass
290 kg wet, ~270 kg dry
Launch date (UTC)
2021-11-13 (5 years ago)
Launch vehicle
FALCON 9
Launch site
Air Force Eastern Test Range (AFETR)
Object type
Payload
Rocket body
Debris
Shape & HBR
Box + 1 Pan, 10.1 m
Radar Cross Section
13.562 m², Large (>1 m²)

Expand to show TLE details & history
Last TLE update: 1 week ago

TLE from 1 week ago
0 STARLINK-3147
1 49410U 21104C   26154.76608401  .00002081  00000-0  14878-3 0  9998
2 49410  53.1813 202.6949 0001987  43.3790 316.7358 15.08847268251622
Epoch: 2026-06-03T18:23Z
TLE epoch observation values (Epoch: 2026-06-03T18:23:09.658Z)
Latitude
-0.00001°
Longitude
34.68466°
Altitude
539.614 km
Speed
7.594 km/s
True Right ascension
13h 30m 46s
True Declination
0° 00' 00"
Sunlit
Object was in full shadow at epoch
Visualization orbit readout
Latitude
Unknown
Longitude
Unknown
Altitude
Unknown
Speed
Unknown
Apparent Right ascension
Unknown
Apparent Declination
Unknown
Sunlit
N/A
Visualization observer readout
Local Sidereal Time
14:54:45
Azimuth
Unknown
Elevation
Unknown
Doppler factor
Unknown
Orbital elements
Apogee altitude
541.347 km
Perigee altitude
538.597 km
Semi-major axis
6,918.109 km
Eccentricity
0.0002
Inclination
53.1813°
RAAN
202.6949°
Arg. of periapsis
43.379°
True anomaly
316.72019°
Mean anomaly
316.7358°
Eccentric anomaly
316.728°
Mean motion
3.77192 °/min
Orbital period
95.44 mins
BSTAR
0.00014878
Loading maneuver chart data...
Computing Atmospheric mass density...
Loading historical data...
Loading historical data...
Loading historical data...
Loading historical data...
Loading historical data...
Loading historical data...
Loading historical data...

Documentation

Showing up to 5 results
|